When you browse on this site, cookies collect data to enhance your experience and personalize the content and advertising you see.
Visit our Privacy Policy to learn more. By continuing to use the site, you agree to this use of cookies and data.
  • en France
  • Liste des pays
  • À 7 jours
  • Température de l'eau
  • Carte météo
  • Widgets météo
  • user-avatar
    Se connecter

    Météo par heure à La-Plata

    Ce jour, 21 Février, Vendredi

    Heure Température Précipitation Vent Pression Humidité
    00:00 +14°C° 0 mm 6 m/s 764 mmHg 57%
    01:00 +13°C° 0 mm 6 m/s 764 mmHg 60%
    02:00 +13°C° 0 mm 6 m/s 764 mmHg 62%
    09:00 +18°C° 0 mm 7 m/s 765 mmHg 48%
    10:00 +20°C° 0 mm 7 m/s 765 mmHg 43%
    11:00 +22°C° 0 mm 7 m/s 765 mmHg 37%
    12:00 +23°C° 0 mm 7 m/s 765 mmHg 34%
    13:00 +24°C° 0 mm 7 m/s 765 mmHg 32%
    14:00 +26°C° 0 mm 7 m/s 764 mmHg 29%
    15:00 +24°C° 0 mm 6 m/s 764 mmHg 29%
    16:00 +24°C° 0 mm 6 m/s 764 mmHg 29%
    17:00 +23°C° 0 mm 6 m/s 764 mmHg 29%
    18:00 +21°C° 0 mm 6 m/s 764 mmHg 34%
    19:00 +19°C° 0 mm 6 m/s 765 mmHg 40%
    20:00 +16°C° 0 mm 6 m/s 765 mmHg 45%
    21:00 +15°C° 0 mm 5 m/s 766 mmHg 51%
    22:00 +14°C° 0 mm 5 m/s 766 mmHg 58%
    23:00 +12°C° 0 mm 5 m/s 766 mmHg 64%

    Demain, 22 Février, Samedi

    Heure Température Précipitation Vent Pression Humidité
    00:00 +12°C° 0 mm 5 m/s 766 mmHg 68%
    01:00 +11°C° 0 mm 4 m/s 766 mmHg 72%
    02:00 +10°C° 0 mm 4 m/s 766 mmHg 76%
    03:00 +10°C° 0 mm 4 m/s 767 mmHg 78%
    04:00 +10°C° 0 mm 4 m/s 767 mmHg 80%
    05:00 +9°C° 0 mm 3 m/s 767 mmHg 82%
    06:00 +11°C° 0 mm 3 m/s 767 mmHg 76%
    07:00 +13°C° 0 mm 3 m/s 767 mmHg 69%
    08:00 +14°C° 0 mm 3 m/s 767 mmHg 63%
    09:00 +17°C° 0 mm 3 m/s 767 mmHg 54%
    10:00 +20°C° 0 mm 2 m/s 767 mmHg 45%
    11:00 +23°C° 0 mm 2 m/s 767 mmHg 37%
    12:00 +24°C° 0 mm 2 m/s 766 mmHg 36%
    13:00 +25°C° 0 mm 3 m/s 765 mmHg 36%
    14:00 +25°C° 0 mm 4 m/s 765 mmHg 35%
    15:00 +23°C° 0 mm 4 m/s 764 mmHg 41%
    16:00 +22°C° 0 mm 5 m/s 764 mmHg 46%
    17:00 +21°C° 0 mm 5 m/s 764 mmHg 51%
    18:00 +20°C° 0 mm 5 m/s 764 mmHg 58%
    19:00 +19°C° 0 mm 4 m/s 764 mmHg 64%
    20:00 +17°C° 0 mm 4 m/s 764 mmHg 71%
    21:00 +17°C° 0 mm 3 m/s 764 mmHg 73%
    22:00 +17°C° 0 mm 3 m/s 764 mmHg 75%
    23:00 +16°C° 0 mm 3 m/s 764 mmHg 77%

    Après-demain, 23 Février, Dimanche

    Heure Température Précipitation Vent Pression Humidité
    00:00 +16°C° 0 mm 3 m/s 764 mmHg 78%
    01:00 +16°C° 0 mm 3 m/s 763 mmHg 78%
    02:00 +16°C° 0 mm 3 m/s 763 mmHg 79%
    03:00 +16°C° 0 mm 3 m/s 763 mmHg 79%
    04:00 +16°C° 0 mm 3 m/s 763 mmHg 80%
    05:00 +16°C° 0 mm 3 m/s 763 mmHg 80%
    06:00 +18°C° 0 mm 3 m/s 763 mmHg 73%
    07:00 +19°C° 0 mm 4 m/s 763 mmHg 65%
    08:00 +21°C° 0 mm 4 m/s 764 mmHg 58%
    09:00 +22°C° 0 mm 4 m/s 763 mmHg 52%
    10:00 +25°C° 0 mm 3 m/s 763 mmHg 46%
    11:00 +26°C° 0 mm 3 m/s 763 mmHg 41%
    12:00 +27°C° 0 mm 3 m/s 762 mmHg 37%
    13:00 +28°C° 0 mm 3 m/s 761 mmHg 32%
    14:00 +29°C° 0 mm 2 m/s 760 mmHg 28%
    15:00 +29°C° 0 mm 2 m/s 759 mmHg 29%
    16:00 +29°C° 0 mm 3 m/s 759 mmHg 29%
    17:00 +29°C° 0 mm 3 m/s 758 mmHg 29%
    18:00 +27°C° 0 mm 4 m/s 758 mmHg 42%
    19:00 +23°C° 0 mm 4 m/s 759 mmHg 55%
    20:00 +21°C° 0 mm 5 m/s 759 mmHg 67%
    21:00 +21°C° 0 mm 5 m/s 759 mmHg 71%
    22:00 +21°C° 0 mm 4 m/s 759 mmHg 74%
    23:00 +21°C° 0 mm 4 m/s 759 mmHg 77%

    24 Février, Lundi

    Heure Température Précipitation Vent Pression Humidité
    00:00 +21°C° 0 mm 4 m/s 758 mmHg 73%
    01:00 +21°C° 0 mm 4 m/s 758 mmHg 69%
    02:00 +21°C° 0 mm 4 m/s 757 mmHg 64%
    03:00 +21°C° 0 mm 4 m/s 757 mmHg 64%
    04:00 +21°C° 0 mm 5 m/s 757 mmHg 63%
    05:00 +20°C° 0 mm 5 m/s 757 mmHg 62%
    06:00 +22°C° 0 mm 5 m/s 757 mmHg 60%
    07:00 +23°C° 0 mm 6 m/s 757 mmHg 57%
    08:00 +24°C° 0 mm 6 m/s 757 mmHg 54%
    09:00 +27°C° 0 mm 6 m/s 756 mmHg 48%
    10:00 +28°C° 0 mm 5 m/s 756 mmHg 42%
    11:00 +30°C° 0 mm 5 m/s 756 mmHg 36%
    12:00 +32°C° 0 mm 5 m/s 755 mmHg 33%
    13:00 +33°C° 0 mm 5 m/s 754 mmHg 30%
    14:00 +33°C° 0 mm 4 m/s 753 mmHg 27%
    15:00 +33°C° 0 mm 4 m/s 753 mmHg 26%
    16:00 +33°C° 0 mm 4 m/s 752 mmHg 25%
    17:00 +33°C° 0 mm 3 m/s 752 mmHg 25%
    18:00 +30°C° 0 mm 3 m/s 752 mmHg 35%
    19:00 +28°C° 0 mm 4 m/s 752 mmHg 44%
    20:00 +25°C° 0 mm 4 m/s 752 mmHg 54%
    21:00 +25°C° 0 mm 4 m/s 752 mmHg 57%
    22:00 +25°C° 0 mm 4 m/s 752 mmHg 60%
    23:00 +25°C° 0 mm 4 m/s 753 mmHg 63%

    25 Février, Mardi

    Heure Température Précipitation Vent Pression Humidité
    00:00 +23°C° 0 mm 4 m/s 753 mmHg 65%
    01:00 +22°C° 0 mm 3 m/s 753 mmHg 67%
    02:00 +21°C° 0 mm 3 m/s 753 mmHg 68%
    03:00 +21°C° 0 mm 3 m/s 753 mmHg 65%
    04:00 +21°C° 0 mm 3 m/s 754 mmHg 63%
    05:00 +21°C° 0 mm 3 m/s 754 mmHg 60%
    06:00 +21°C° 0.1 mm 3 m/s 755 mmHg 63%
    07:00 +20°C° 0.1 mm 4 m/s 755 mmHg 67%
    08:00 +20°C° 0.1 mm 4 m/s 755 mmHg 70%
    09:00 +22°C° 0 mm 4 m/s 756 mmHg 61%
    10:00 +25°C° 0 mm 3 m/s 756 mmHg 52%
    11:00 +27°C° 0 mm 3 m/s 756 mmHg 43%
    12:00 +28°C° 0 mm 3 m/s 756 mmHg 38%
    13:00 +30°C° 0 mm 3 m/s 756 mmHg 33%
    14:00 +32°C° 0 mm 4 m/s 755 mmHg 28%
    15:00 +29°C° 0 mm 5 m/s 756 mmHg 37%
    16:00 +27°C° 0 mm 7 m/s 756 mmHg 46%
    17:00 +24°C° 0 mm 8 m/s 756 mmHg 55%
    18:00 +22°C° 0 mm 8 m/s 757 mmHg 59%
    19:00 +20°C° 0 mm 7 m/s 757 mmHg 63%
    20:00 +18°C° 0 mm 7 m/s 758 mmHg 67%
    21:00 +17°C° 0 mm 6 m/s 758 mmHg 67%
    22:00 +17°C° 0 mm 6 m/s 759 mmHg 68%
    23:00 +17°C° 0 mm 6 m/s 759 mmHg 68%

    26 Février, Mercredi

    Heure Température Précipitation Vent Pression Humidité
    00:00 +16°C° 0 mm 5 m/s 759 mmHg 70%
    01:00 +16°C° 0 mm 5 m/s 759 mmHg 71%
    02:00 +17°C° 0 mm 4 m/s 759 mmHg 73%
    03:00 +15°C° 0 mm 4 m/s 759 mmHg 74%
    04:00 +15°C° 0 mm 4 m/s 759 mmHg 75%
    05:00 +14°C° 0 mm 3 m/s 760 mmHg 76%
    06:00 +17°C° 0 mm 4 m/s 760 mmHg 69%
    07:00 +18°C° 0 mm 4 m/s 760 mmHg 62%
    08:00 +20°C° 0 mm 4 m/s 760 mmHg 56%
    09:00 +22°C° 0 mm 4 m/s 760 mmHg 48%
    10:00 +25°C° 0 mm 4 m/s 760 mmHg 41%
    11:00 +27°C° 0 mm 4 m/s 760 mmHg 34%
    12:00 +27°C° 0 mm 4 m/s 760 mmHg 33%
    13:00 +28°C° 0 mm 4 m/s 759 mmHg 32%
    14:00 +28°C° 0 mm 4 m/s 759 mmHg 32%
    15:00 +27°C° 0 mm 5 m/s 759 mmHg 37%
    16:00 +26°C° 0 mm 5 m/s 758 mmHg 41%
    17:00 +25°C° 0 mm 5 m/s 758 mmHg 46%
    18:00 +22°C° 0 mm 5 m/s 759 mmHg 52%
    19:00 +20°C° 0 mm 5 m/s 759 mmHg 58%
    20:00 +19°C° 0 mm 6 m/s 760 mmHg 65%
    21:00 +17°C° 0 mm 5 m/s 760 mmHg 66%
    22:00 +17°C° 0 mm 5 m/s 760 mmHg 68%
    23:00 +17°C° 0 mm 5 m/s 760 mmHg 70%
    Voir plus